Find Starlink 33658

NORAD ID: 63384 Int'l Des: 2025-063 Owner: SPXS Country: US Constellation: starlink operational
LEOCIRCULAR

現在のビュー

3D地球を読み込み中...

About Starlink 33658

Starlink 33658 (NORAD 63384) is a starlink constellation satellite (v2 mini) launched Mar 26, 2025 by SPXS of US. It operates in LEO, CIRCULAR orbit with a mass of 575.00 kg.

Starlink 33658について

説明を読み込み中...

次回通過

Passes for default location (London). Set your location on the main map for personalized predictions.

高度履歴

Loading altitude history...

軌道要素

1 63384U 25063X 26192.41444671 .00011953 00000-0 36422-3 0 9990
2 63384 53.1595 194.1229 0000655 38.3263 321.7786 15.34409692 73752
Epoch: Jul 11, 2026 • Age: 16 hours

現在のステータス

高度 463.2 km
遠地点 / 近地点 N/A
速度 7.64 km/s
衛星直下点 6.25°N, 41.36°E
打ち上げ日 Mar 26, 2025
運用期間 1.2 years
タイプ internet

技術仕様

分類 Payload
質量 575.00 kg
乾燥質量 530.00 kg
総質量 575.00 kg
長さ 0.30 m
直径 4.10 m
スパン 29.00 m
形状 Box + pan
製造者 SPXS
バスタイプ Starlink V2MO
フェーズステータス In Orbit
所有者/国 SPXS/US

Most Searched